owner,sensor,date,latitude,longitude,vertical_datum,wind_speed,wind_to_direction,wind_speed_of_gust,qcFlag 
TCOON,ioos:station:TCOON:068:1,2013-08-01T00:00:00Z,27.2970,-97.4049,0.0,7.0,131.0,8.9,'11111222,11111222,11111222' 
TCOON,ioos:station:TCOON:068:1,2013-08-01T00:06:00Z,27.2970,-97.4049,0.0,6.6,129.0,8.8,'11111222,11111222,11111222' 
TCOON,ioos:station:TCOON:068:1,2013-08-01T00:12:00Z,27.2970,-97.4049,0.0,6.9,129.0,8.9,'11111222,11111222,11111222' 
TCOON,ioos:station:TCOON:068:1,2013-08-01T00:18:00Z,27.2970,-97.4049,0.0,7.0,126.0,8.8,'11111222,11111222,11111222' 
TCOON,ioos:station:TCOON:068:1,2013-08-01T00:24:00Z,27.2970,-97.4049,0.0,7.2,125.0,9.0,'11111222,11111222,11111222' 
TCOON,ioos:station:TCOON:068:1,2013-08-01T00:30:00Z,27.2970,-97.4049,0.0,7.3,133.0,8.7,'11111222,11111222,11111222' 
TCOON,ioos:station:TCOON:068:1,2013-08-01T00:36:00Z,27.2970,-97.4049,0.0,6.9,133.0,9.1,'11111222,11111222,11111222' 
TCOON,ioos:station:TCOON:068:1,2013-08-01T00:42:00Z,27.2970,-97.4049,0.0,6.5,133.0,9.2,'11111222,11111222,11111222' 
TCOON,ioos:station:TCOON:068:1,2013-08-01T00:48:00Z,27.2970,-97.4049,0.0,7.1,131.0,9.2,'11111222,11111222,11111222' 
TCOON,ioos:station:TCOON:068:1,2013-08-01T00:54:00Z,27.2970,-97.4049,0.0,7.1,133.0,9.0,'11111222,11111222,11111222' 
TCOON,ioos:station:TCOON:068:1,2013-08-01T01:00:00Z,27.2970,-97.4049,0.0,7.0,131.0,9.4,'11111222,11111222,11111222' 
TCOON,ioos:station:TCOON:068:1,2013-08-01T01:06:00Z,27.2970,-97.4049,0.0,6.6,135.0,8.4,'11111222,11111222,11111222' 
TCOON,ioos:station:TCOON:068:1,2013-08-01T01:12:00Z,27.2970,-97.4049,0.0,7.0,131.0,8.8,'11111222,11111222,11111222' 
TCOON,ioos:station:TCOON:068:1,2013-08-01T01:18:00Z,27.2970,-97.4049,0.0,6.5,130.0,8.3,'11111222,11111222,11111222' 
TCOON,ioos:station:TCOON:068:1,2013-08-01T01:24:00Z,27.2970,-97.4049,0.0,6.3,130.0,8.7,'11111222,11111222,11111222' 
TCOON,ioos:station:TCOON:068:1,2013-08-01T01:30:00Z,27.2970,-97.4049,0.0,6.3,134.0,7.9,'11111222,11111222,11111222' 
TCOON,ioos:station:TCOON:068:1,2013-08-01T01:36:00Z,27.2970,-97.4049,0.0,6.6,135.0,8.2,'11111222,11111222,11111222' 
TCOON,ioos:station:TCOON:068:1,2013-08-01T01:42:00Z,27.2970,-97.4049,0.0,6.7,138.0,8.3,'11111222,11111222,11111222' 
TCOON,ioos:station:TCOON:068:1,2013-08-01T01:48:00Z,27.2970,-97.4049,0.0,6.6,137.0,8.0,'11111222,11111222,11111222' 
TCOON,ioos:station:TCOON:068:1,2013-08-01T01:54:00Z,27.2970,-97.4049,0.0,6.5,140.0,8.0,'11111222,11111222,11111222' 
TCOON,ioos:station:TCOON:068:1,2013-08-01T02:00:00Z,27.2970,-97.4049,0.0,5.9,140.0,7.6,'11111222,11111222,11111222' 
TCOON,ioos:station:TCOON:068:1,2013-08-01T02:06:00Z,27.2970,-97.4049,0.0,5.8,141.0,7.5,'11111222,11111222,11111222' 
TCOON,ioos:station:TCOON:068:1,2013-08-01T02:12:00Z,27.2970,-97.4049,0.0,5.4,146.0,7.5,'11111222,11111222,11111222' 
TCOON,ioos:station:TCOON:068:1,2013-08-01T02:18:00Z,27.2970,-97.4049,0.0,6.2,144.0,7.4,'11111222,11111222,11111222' 
TCOON,ioos:station:TCOON:068:1,2013-08-01T02:24:00Z,27.2970,-97.4049,0.0,6.2,144.0,7.3,'11111222,11111222,11111222' 
TCOON,ioos:station:TCOON:068:1,2013-08-01T02:30:00Z,27.2970,-97.4049,0.0,6.0,145.0,7.6,'11111222,11111222,11111222' 
TCOON,ioos:station:TCOON:068:1,2013-08-01T02:36:00Z,27.2970,-97.4049,0.0,5.4,141.0,7.5,'11111222,11111222,11111222' 
TCOON,ioos:station:TCOON:068:1,2013-08-01T02:42:00Z,27.2970,-97.4049,0.0,5.8,141.0,7.1,'11111222,11111222,11111222' 
TCOON,ioos:station:TCOON:068:1,2013-08-01T02:48:00Z,27.2970,-97.4049,0.0,6.0,143.0,7.9,'11111222,11111222,11111222' 
TCOON,ioos:station:TCOON:068:1,2013-08-01T02:54:00Z,27.2970,-97.4049,0.0,5.9,143.0,7.3,'11111222,11111222,11111222' 
TCOON,ioos:station:TCOON:068:1,2013-08-01T03:00:00Z,27.2970,-97.4049,0.0,5.9,149.0,7.6,'11111222,11111222,11111222' 
TCOON,ioos:station:TCOON:068:1,2013-08-01T03:06:00Z,27.2970,-97.4049,0.0,5.5,143.0,7.6,'11111222,11111222,11111222' 
TCOON,ioos:station:TCOON:068:1,2013-08-01T03:12:00Z,27.2970,-97.4049,0.0,5.5,144.0,6.9,'11111222,11111222,11111222' 
TCOON,ioos:station:TCOON:068:1,2013-08-01T03:18:00Z,27.2970,-97.4049,0.0,5.5,146.0,7.5,'11111222,11111222,11111222' 
TCOON,ioos:station:TCOON:068:1,2013-08-01T03:24:00Z,27.2970,-97.4049,0.0,6.1,147.0,8.1,'11111222,11111222,11111222' 
TCOON,ioos:station:TCOON:068:1,2013-08-01T03:30:00Z,27.2970,-97.4049,0.0,5.3,145.0,7.4,'11111222,11111222,11111222' 
TCOON,ioos:station:TCOON:068:1,2013-08-01T03:36:00Z,27.2970,-97.4049,0.0,5.7,149.0,7.6,'11111222,11111222,11111222' 
TCOON,ioos:station:TCOON:068:1,2013-08-01T03:42:00Z,27.2970,-97.4049,0.0,5.6,150.0,6.9,'11111222,11111222,11111222' 
TCOON,ioos:station:TCOON:068:1,2013-08-01T03:48:00Z,27.2970,-97.4049,0.0,5.8,154.0,7.2,'11111222,11111222,11111222' 
TCOON,ioos:station:TCOON:068:1,2013-08-01T03:54:00Z,27.2970,-97.4049,0.0,5.7,152.0,7.1,'11111222,11111222,11111222' 
TCOON,ioos:station:TCOON:068:1,2013-08-01T04:00:00Z,27.2970,-97.4049,0.0,5.2,153.0,6.9,'11111222,11111222,11111222' 
TCOON,ioos:station:TCOON:068:1,2013-08-01T04:06:00Z,27.2970,-97.4049,0.0,5.5,150.0,7.0,'11111222,11111222,11111222' 
TCOON,ioos:station:TCOON:068:1,2013-08-01T04:12:00Z,27.2970,-97.4049,0.0,5.6,152.0,7.1,'11111222,11111222,11111222' 
TCOON,ioos:station:TCOON:068:1,2013-08-01T04:18:00Z,27.2970,-97.4049,0.0,5.0,151.0,6.8,'11111222,11111222,11111222' 
TCOON,ioos:station:TCOON:068:1,2013-08-01T04:24:00Z,27.2970,-97.4049,0.0,5.2,151.0,6.8,'11111222,11111222,11111222' 
TCOON,ioos:station:TCOON:068:1,2013-08-01T04:30:00Z,27.2970,-97.4049,0.0,4.9,151.0,6.7,'11111222,11111222,11111222' 
TCOON,ioos:station:TCOON:068:1,2013-08-01T04:36:00Z,27.2970,-97.4049,0.0,5.1,153.0,7.3,'11111222,11111222,11111222' 
TCOON,ioos:station:TCOON:068:1,2013-08-01T04:42:00Z,27.2970,-97.4049,0.0,5.3,147.0,6.6,'11111222,11111222,11111222' 
TCOON,ioos:station:TCOON:068:1,2013-08-01T04:48:00Z,27.2970,-97.4049,0.0,5.1,147.0,6.4,'11111222,11111222,11111222' 
TCOON,ioos:station:TCOON:068:1,2013-08-01T04:54:00Z,27.2970,-97.4049,0.0,4.4,149.0,6.6,'11111222,11111222,11111222' 
TCOON,ioos:station:TCOON:068:1,2013-08-01T05:00:00Z,27.2970,-97.4049,0.0,5.1,150.0,6.5,'11111222,11111222,11111222' 
TCOON,ioos:station:TCOON:068:1,2013-08-01T05:06:00Z,27.2970,-97.4049,0.0,4.9,146.0,6.3,'11111222,11111222,11111222' 
TCOON,ioos:station:TCOON:068:1,2013-08-01T05:12:00Z,27.2970,-97.4049,0.0,4.6,151.0,6.0,'11111222,11111222,11111222' 
TCOON,ioos:station:TCOON:068:1,2013-08-01T05:18:00Z,27.2970,-97.4049,0.0,4.8,146.0,6.6,'11111222,11111222,11111222' 
TCOON,ioos:station:TCOON:068:1,2013-08-01T05:24:00Z,27.2970,-97.4049,0.0,4.5,150.0,5.9,'11111222,11111222,11111222' 
TCOON,ioos:station:TCOON:068:1,2013-08-01T05:30:00Z,27.2970,-97.4049,0.0,4.6,148.0,5.9,'11111222,11111222,11111222' 
TCOON,ioos:station:TCOON:068:1,2013-08-01T05:36:00Z,27.2970,-97.4049,0.0,5.2,151.0,6.3,'11111222,11111222,11111222' 
TCOON,ioos:station:TCOON:068:1,2013-08-01T05:42:00Z,27.2970,-97.4049,0.0,4.7,146.0,6.4,'11111222,11111222,11111222' 
TCOON,ioos:station:TCOON:068:1,2013-08-01T05:48:00Z,27.2970,-97.4049,0.0,4.8,146.0,6.5,'11111222,11111222,11111222' 
TCOON,ioos:station:TCOON:068:1,2013-08-01T05:54:00Z,27.2970,-97.4049,0.0,4.6,147.0,5.4,'11111222,11111222,11111222' 
TCOON,ioos:station:TCOON:068:1,2013-08-01T06:00:00Z,27.2970,-97.4049,0.0,4.9,144.0,5.8,'11111222,11111222,11111222' 
TCOON,ioos:station:TCOON:068:1,2013-08-01T06:06:00Z,27.2970,-97.4049,0.0,4.7,147.0,6.1,'11111222,11111222,11111222' 
TCOON,ioos:station:TCOON:068:1,2013-08-01T06:12:00Z,27.2970,-97.4049,0.0,5.1,146.0,6.4,'11111222,11111222,11111222' 
TCOON,ioos:station:TCOON:068:1,2013-08-01T06:18:00Z,27.2970,-97.4049,0.0,4.8,145.0,6.1,'11111222,11111222,11111222' 
TCOON,ioos:station:TCOON:068:1,2013-08-01T06:24:00Z,27.2970,-97.4049,0.0,5.0,144.0,6.3,'11111222,11111222,11111222' 
TCOON,ioos:station:TCOON:068:1,2013-08-01T06:30:00Z,27.2970,-97.4049,0.0,4.9,144.0,5.9,'11111222,11111222,11111222' 
TCOON,ioos:station:TCOON:068:1,2013-08-01T06:36:00Z,27.2970,-97.4049,0.0,5.1,149.0,6.0,'11111222,11111222,11111222' 
TCOON,ioos:station:TCOON:068:1,2013-08-01T06:42:00Z,27.2970,-97.4049,0.0,5.0,147.0,5.8,'11111222,11111222,11111222' 
TCOON,ioos:station:TCOON:068:1,2013-08-01T06:48:00Z,27.2970,-97.4049,0.0,4.6,148.0,6.0,'11111222,11111222,11111222' 
TCOON,ioos:station:TCOON:068:1,2013-08-01T06:54:00Z,27.2970,-97.4049,0.0,4.9,149.0,6.2,'11111222,11111222,11111222' 
TCOON,ioos:station:TCOON:068:1,2013-08-01T07:00:00Z,27.2970,-97.4049,0.0,4.2,154.0,5.5,'11111222,11111222,11111222' 
TCOON,ioos:station:TCOON:068:1,2013-08-01T07:06:00Z,27.2970,-97.4049,0.0,4.9,158.0,5.9,'11111222,11111222,11111222' 
TCOON,ioos:station:TCOON:068:1,2013-08-01T07:12:00Z,27.2970,-97.4049,0.0,4.5,160.0,5.5,'11111222,11111222,11111222' 
TCOON,ioos:station:TCOON:068:1,2013-08-01T07:18:00Z,27.2970,-97.4049,0.0,4.4,158.0,5.4,'11111222,11111222,11111222' 
TCOON,ioos:station:TCOON:068:1,2013-08-01T07:24:00Z,27.2970,-97.4049,0.0,4.4,164.0,4.9,'11111222,11111222,11111222' 
TCOON,ioos:station:TCOON:068:1,2013-08-01T07:30:00Z,27.2970,-97.4049,0.0,4.5,164.0,5.4,'11111222,11111222,11111222' 
TCOON,ioos:station:TCOON:068:1,2013-08-01T07:36:00Z,27.2970,-97.4049,0.0,4.4,161.0,5.1,'11111222,11111222,11111222' 
TCOON,ioos:station:TCOON:068:1,2013-08-01T07:42:00Z,27.2970,-97.4049,0.0,5.1,166.0,5.9,'11111222,11111222,11111222' 
TCOON,ioos:station:TCOON:068:1,2013-08-01T07:48:00Z,27.2970,-97.4049,0.0,4.7,164.0,5.8,'11111222,11111222,11111222' 
TCOON,ioos:station:TCOON:068:1,2013-08-01T07:54:00Z,27.2970,-97.4049,0.0,4.7,162.0,5.7,'11111222,11111222,11111222' 
TCOON,ioos:station:TCOON:068:1,2013-08-01T08:00:00Z,27.2970,-97.4049,0.0,4.6,163.0,5.6,'11111222,11111222,11111222' 
TCOON,ioos:station:TCOON:068:1,2013-08-01T08:06:00Z,27.2970,-97.4049,0.0,4.3,159.0,5.9,'11111222,11111222,11111222' 
TCOON,ioos:station:TCOON:068:1,2013-08-01T08:12:00Z,27.2970,-97.4049,0.0,4.6,162.0,5.9,'11111222,11111222,11111222' 
TCOON,ioos:station:TCOON:068:1,2013-08-01T08:18:00Z,27.2970,-97.4049,0.0,4.7,164.0,5.4,'11111222,11111222,11111222' 
TCOON,ioos:station:TCOON:068:1,2013-08-01T08:24:00Z,27.2970,-97.4049,0.0,4.1,164.0,4.8,'11111222,11111222,11111222' 
TCOON,ioos:station:TCOON:068:1,2013-08-01T08:30:00Z,27.2970,-97.4049,0.0,3.9,163.0,4.7,'11111222,11111222,11111222' 
TCOON,ioos:station:TCOON:068:1,2013-08-01T08:36:00Z,27.2970,-97.4049,0.0,3.9,159.0,5.8,'11111222,11111222,11111222' 
TCOON,ioos:station:TCOON:068:1,2013-08-01T08:42:00Z,27.2970,-97.4049,0.0,4.2,162.0,5.2,'11111222,11111222,11111222' 
TCOON,ioos:station:TCOON:068:1,2013-08-01T08:48:00Z,27.2970,-97.4049,0.0,4.5,160.0,5.6,'11111222,11111222,11111222' 
TCOON,ioos:station:TCOON:068:1,2013-08-01T08:54:00Z,27.2970,-97.4049,0.0,4.3,160.0,5.5,'11111222,11111222,11111222' 
TCOON,ioos:station:TCOON:068:1,2013-08-01T09:00:00Z,27.2970,-97.4049,0.0,4.7,161.0,5.5,'11111222,11111222,11111222' 
TCOON,ioos:station:TCOON:068:1,2013-08-01T09:06:00Z,27.2970,-97.4049,0.0,4.3,162.0,5.1,'11111222,11111222,11111222' 
TCOON,ioos:station:TCOON:068:1,2013-08-01T09:12:00Z,27.2970,-97.4049,0.0,3.8,164.0,5.7,'11111222,11111222,11111222' 
TCOON,ioos:station:TCOON:068:1,2013-08-01T09:18:00Z,27.2970,-97.4049,0.0,4.7,168.0,5.6,'11111222,11111222,11111222' 
TCOON,ioos:station:TCOON:068:1,2013-08-01T09:24:00Z,27.2970,-97.4049,0.0,4.6,169.0,5.2,'11111222,11111222,11111222' 
TCOON,ioos:station:TCOON:068:1,2013-08-01T09:30:00Z,27.2970,-97.4049,0.0,4.7,169.0,5.3,'11111222,11111222,11111222' 
TCOON,ioos:station:TCOON:068:1,2013-08-01T09:36:00Z,27.2970,-97.4049,0.0,3.9,165.0,5.2,'11111222,11111222,11111222' 
TCOON,ioos:station:TCOON:068:1,2013-08-01T09:42:00Z,27.2970,-97.4049,0.0,3.7,162.0,4.6,'11111222,11111222,11111222' 
TCOON,ioos:station:TCOON:068:1,2013-08-01T09:48:00Z,27.2970,-97.4049,0.0,3.4,156.0,4.2,'11111222,11111222,11111222' 
TCOON,ioos:station:TCOON:068:1,2013-08-01T09:54:00Z,27.2970,-97.4049,0.0,3.7,158.0,4.3,'11111222,11111222,11111222' 
TCOON,ioos:station:TCOON:068:1,2013-08-01T10:00:00Z,27.2970,-97.4049,0.0,3.6,168.0,4.3,'11111222,11111222,11111222' 
TCOON,ioos:station:TCOON:068:1,2013-08-01T10:06:00Z,27.2970,-97.4049,0.0,3.8,172.0,4.3,'11111222,11111222,11111222' 
TCOON,ioos:station:TCOON:068:1,2013-08-01T10:12:00Z,27.2970,-97.4049,0.0,4.3,174.0,4.6,'11111222,11111222,11111222' 
TCOON,ioos:station:TCOON:068:1,2013-08-01T10:18:00Z,27.2970,-97.4049,0.0,4.4,178.0,5.0,'11111222,11111222,11111222' 
TCOON,ioos:station:TCOON:068:1,2013-08-01T10:24:00Z,27.2970,-97.4049,0.0,4.3,177.0,5.1,'11111222,11111222,11111222' 
TCOON,ioos:station:TCOON:068:1,2013-08-01T10:30:00Z,27.2970,-97.4049,0.0,4.4,192.0,5.4,'11111222,11111222,11111222' 
TCOON,ioos:station:TCOON:068:1,2013-08-01T10:36:00Z,27.2970,-97.4049,0.0,4.3,202.0,5.2,'11111222,11111222,11111222' 
TCOON,ioos:station:TCOON:068:1,2013-08-01T10:42:00Z,27.2970,-97.4049,0.0,5.3,206.0,6.2,'11111222,11111222,11111222' 
TCOON,ioos:station:TCOON:068:1,2013-08-01T10:48:00Z,27.2970,-97.4049,0.0,5.9,202.0,7.3,'11111222,11111222,11111222' 
TCOON,ioos:station:TCOON:068:1,2013-08-01T10:54:00Z,27.2970,-97.4049,0.0,5.1,200.0,6.3,'11111222,11111222,11111222' 
TCOON,ioos:station:TCOON:068:1,2013-08-01T11:00:00Z,27.2970,-97.4049,0.0,5.4,200.0,6.3,'11111222,11111222,11111222' 
TCOON,ioos:station:TCOON:068:1,2013-08-01T11:06:00Z,27.2970,-97.4049,0.0,5.8,201.0,6.8,'11111222,11111222,11111222' 
TCOON,ioos:station:TCOON:068:1,2013-08-01T11:12:00Z,27.2970,-97.4049,0.0,5.7,199.0,6.9,'11111222,11111222,11111222' 
TCOON,ioos:station:TCOON:068:1,2013-08-01T11:18:00Z,27.2970,-97.4049,0.0,6.1,201.0,6.9,'11111222,11111222,11111222' 
TCOON,ioos:station:TCOON:068:1,2013-08-01T11:24:00Z,27.2970,-97.4049,0.0,6.7,195.0,7.7,'11111222,11111222,11111222' 
TCOON,ioos:station:TCOON:068:1,2013-08-01T11:30:00Z,27.2970,-97.4049,0.0,5.7,202.0,6.7,'11111222,11111222,11111222' 
TCOON,ioos:station:TCOON:068:1,2013-08-01T11:36:00Z,27.2970,-97.4049,0.0,5.5,198.0,6.9,'11111222,11111222,11111222' 
TCOON,ioos:station:TCOON:068:1,2013-08-01T11:42:00Z,27.2970,-97.4049,0.0,4.2,200.0,5.2,'11111222,11111222,11111222' 
TCOON,ioos:station:TCOON:068:1,2013-08-01T11:48:00Z,27.2970,-97.4049,0.0,4.0,203.0,5.1,'11111222,11111222,11111222' 
TCOON,ioos:station:TCOON:068:1,2013-08-01T11:54:00Z,27.2970,-97.4049,0.0,3.6,201.0,4.8,'11111222,11111222,11111222' 
TCOON,ioos:station:TCOON:068:1,2013-08-01T12:00:00Z,27.2970,-97.4049,0.0,3.6,208.0,4.1,'11111222,11111222,11111222' 
TCOON,ioos:station:TCOON:068:1,2013-08-01T12:06:00Z,27.2970,-97.4049,0.0,3.9,207.0,4.9,'11111222,11111222,11111222' 
TCOON,ioos:station:TCOON:068:1,2013-08-01T12:12:00Z,27.2970,-97.4049,0.0,3.8,202.0,4.5,'11111222,11111222,11111222' 
TCOON,ioos:station:TCOON:068:1,2013-08-01T12:18:00Z,27.2970,-97.4049,0.0,3.5,210.0,4.2,'11111222,11111222,11111222' 
TCOON,ioos:station:TCOON:068:1,2013-08-01T12:24:00Z,27.2970,-97.4049,0.0,3.1,205.0,3.5,'11111222,11111222,11111222' 
TCOON,ioos:station:TCOON:068:1,2013-08-01T12:30:00Z,27.2970,-97.4049,0.0,3.0,205.0,3.5,'11111222,11111222,11111222' 
TCOON,ioos:station:TCOON:068:1,2013-08-01T12:36:00Z,27.2970,-97.4049,0.0,3.1,203.0,3.7,'11111222,11111222,11111222' 
TCOON,ioos:station:TCOON:068:1,2013-08-01T12:42:00Z,27.2970,-97.4049,0.0,3.0,199.0,3.5,'11111222,11111222,11111222' 
TCOON,ioos:station:TCOON:068:1,2013-08-01T12:48:00Z,27.2970,-97.4049,0.0,2.7,199.0,3.4,'11111222,11111222,11111222' 
TCOON,ioos:station:TCOON:068:1,2013-08-01T12:54:00Z,27.2970,-97.4049,0.0,2.9,197.0,3.3,'11111222,11111222,11111222' 
TCOON,ioos:station:TCOON:068:1,2013-08-01T13:00:00Z,27.2970,-97.4049,0.0,2.8,194.0,3.5,'11111222,11111222,11111222' 
TCOON,ioos:station:TCOON:068:1,2013-08-01T13:06:00Z,27.2970,-97.4049,0.0,2.9,202.0,3.5,'11111222,11111222,11111222' 
TCOON,ioos:station:TCOON:068:1,2013-08-01T13:12:00Z,27.2970,-97.4049,0.0,1.9,202.0,3.2,'11111222,11111222,11111222' 
TCOON,ioos:station:TCOON:068:1,2013-08-01T13:18:00Z,27.2970,-97.4049,0.0,2.1,202.0,2.5,'11111222,11111222,11111222' 
TCOON,ioos:station:TCOON:068:1,2013-08-01T13:24:00Z,27.2970,-97.4049,0.0,2.0,202.0,2.5,'11111222,11111222,11111222' 
TCOON,ioos:station:TCOON:068:1,2013-08-01T13:30:00Z,27.2970,-97.4049,0.0,2.0,210.0,2.5,'11111222,11111222,11111222' 
TCOON,ioos:station:TCOON:068:1,2013-08-01T13:36:00Z,27.2970,-97.4049,0.0,2.4,199.0,2.8,'11111222,11111222,11111222' 
TCOON,ioos:station:TCOON:068:1,2013-08-01T13:42:00Z,27.2970,-97.4049,0.0,2.1,197.0,2.6,'11111222,11111222,11111222' 
TCOON,ioos:station:TCOON:068:1,2013-08-01T13:48:00Z,27.2970,-97.4049,0.0,2.2,188.0,2.5,'11111222,11111222,11111222' 
TCOON,ioos:station:TCOON:068:1,2013-08-01T13:54:00Z,27.2970,-97.4049,0.0,2.3,194.0,3.0,'11111222,11111222,11111222' 
TCOON,ioos:station:TCOON:068:1,2013-08-01T14:00:00Z,27.2970,-97.4049,0.0,3.7,200.0,3.9,'11111222,11111222,11111222' 
TCOON,ioos:station:TCOON:068:1,2013-08-01T14:06:00Z,27.2970,-97.4049,0.0,2.9,193.0,4.2,'11111222,11111222,11111222' 
TCOON,ioos:station:TCOON:068:1,2013-08-01T14:12:00Z,27.2970,-97.4049,0.0,2.9,191.0,3.6,'11111222,11111222,11111222' 
TCOON,ioos:station:TCOON:068:1,2013-08-01T14:18:00Z,27.2970,-97.4049,0.0,3.6,182.0,4.2,'11111222,11111222,11111222' 
TCOON,ioos:station:TCOON:068:1,2013-08-01T14:24:00Z,27.2970,-97.4049,0.0,3.5,175.0,4.4,'11111222,11111222,11111222' 
TCOON,ioos:station:TCOON:068:1,2013-08-01T14:30:00Z,27.2970,-97.4049,0.0,4.1,176.0,4.5,'11111222,11111222,11111222' 
TCOON,ioos:station:TCOON:068:1,2013-08-01T14:36:00Z,27.2970,-97.4049,0.0,4.1,171.0,5.0,'11111222,11111222,11111222' 
TCOON,ioos:station:TCOON:068:1,2013-08-01T14:42:00Z,27.2970,-97.4049,0.0,4.3,175.0,5.0,'11111222,11111222,11111222' 
TCOON,ioos:station:TCOON:068:1,2013-08-01T14:48:00Z,27.2970,-97.4049,0.0,4.8,180.0,5.7,'11111222,11111222,11111222' 
TCOON,ioos:station:TCOON:068:1,2013-08-01T14:54:00Z,27.2970,-97.4049,0.0,4.5,170.0,5.8,'11111222,11111222,11111222' 
TCOON,ioos:station:TCOON:068:1,2013-08-01T15:00:00Z,27.2970,-97.4049,0.0,3.3,160.0,5.1,'11111222,11111222,11111222' 
TCOON,ioos:station:TCOON:068:1,2013-08-01T15:06:00Z,27.2970,-97.4049,0.0,3.5,167.0,4.3,'11111222,11111222,11111222' 
TCOON,ioos:station:TCOON:068:1,2013-08-01T15:12:00Z,27.2970,-97.4049,0.0,3.4,161.0,4.3,'11111222,11111222,11111222' 
TCOON,ioos:station:TCOON:068:1,2013-08-01T15:18:00Z,27.2970,-97.4049,0.0,3.9,165.0,4.5,'11111222,11111222,11111222' 
TCOON,ioos:station:TCOON:068:1,2013-08-01T15:24:00Z,27.2970,-97.4049,0.0,3.8,164.0,4.7,'11111222,11111222,11111222' 
TCOON,ioos:station:TCOON:068:1,2013-08-01T15:30:00Z,27.2970,-97.4049,0.0,3.9,166.0,4.9,'11111222,11111222,11111222' 
TCOON,ioos:station:TCOON:068:1,2013-08-01T15:36:00Z,27.2970,-97.4049,0.0,3.9,166.0,4.7,'11111222,11111222,11111222' 
TCOON,ioos:station:TCOON:068:1,2013-08-01T15:42:00Z,27.2970,-97.4049,0.0,3.8,170.0,5.0,'11111222,11111222,11111222' 
TCOON,ioos:station:TCOON:068:1,2013-08-01T15:48:00Z,27.2970,-97.4049,0.0,4.4,185.0,5.6,'11111222,11111222,11111222' 
TCOON,ioos:station:TCOON:068:1,2013-08-01T15:54:00Z,27.2970,-97.4049,0.0,3.5,162.0,5.2,'11111222,11111222,11111222' 
TCOON,ioos:station:TCOON:068:1,2013-08-01T16:00:00Z,27.2970,-97.4049,0.0,2.6,147.0,3.4,'11111222,11111222,11111222' 
TCOON,ioos:station:TCOON:068:1,2013-08-01T16:06:00Z,27.2970,-97.4049,0.0,2.1,163.0,3.4,'11111222,11111222,11111222' 
TCOON,ioos:station:TCOON:068:1,2013-08-01T16:12:00Z,27.2970,-97.4049,0.0,2.8,136.0,3.5,'11111222,11111222,11111222' 
TCOON,ioos:station:TCOON:068:1,2013-08-01T16:18:00Z,27.2970,-97.4049,0.0,2.4,169.0,3.6,'11111222,11111222,11111222' 
TCOON,ioos:station:TCOON:068:1,2013-08-01T16:24:00Z,27.2970,-97.4049,0.0,2.0,142.0,3.7,'11111222,11111222,11111222' 
TCOON,ioos:station:TCOON:068:1,2013-08-01T16:30:00Z,27.2970,-97.4049,0.0,2.7,134.0,3.6,'11111222,11111222,11111222' 
TCOON,ioos:station:TCOON:068:1,2013-08-01T16:36:00Z,27.2970,-97.4049,0.0,2.7,142.0,3.6,'11111222,11111222,11111222' 
TCOON,ioos:station:TCOON:068:1,2013-08-01T16:42:00Z,27.2970,-97.4049,0.0,3.2,136.0,4.2,'11111222,11111222,11111222' 
TCOON,ioos:station:TCOON:068:1,2013-08-01T16:48:00Z,27.2970,-97.4049,0.0,3.2,123.0,4.2,'11111222,11111222,11111222' 
TCOON,ioos:station:TCOON:068:1,2013-08-01T16:54:00Z,27.2970,-97.4049,0.0,3.4,135.0,4.6,'11111222,11111222,11111222' 
TCOON,ioos:station:TCOON:068:1,2013-08-01T17:00:00Z,27.2970,-97.4049,0.0,3.5,115.0,4.8,'11111222,11111222,11111222' 
TCOON,ioos:station:TCOON:068:1,2013-08-01T17:06:00Z,27.2970,-97.4049,0.0,4.2,115.0,5.1,'11111222,11111222,11111222' 
TCOON,ioos:station:TCOON:068:1,2013-08-01T17:12:00Z,27.2970,-97.4049,0.0,4.0,115.0,5.0,'11111222,11111222,11111222' 
TCOON,ioos:station:TCOON:068:1,2013-08-01T17:18:00Z,27.2970,-97.4049,0.0,3.0,118.0,4.6,'11111222,11111222,11111222' 
TCOON,ioos:station:TCOON:068:1,2013-08-01T17:24:00Z,27.2970,-97.4049,0.0,3.7,120.0,4.9,'11111222,11111222,11111222' 
TCOON,ioos:station:TCOON:068:1,2013-08-01T17:30:00Z,27.2970,-97.4049,0.0,3.6,120.0,5.3,'11111222,11111222,11111222' 
TCOON,ioos:station:TCOON:068:1,2013-08-01T17:36:00Z,27.2970,-97.4049,0.0,3.8,113.0,4.8,'11111222,11111222,11111222' 
TCOON,ioos:station:TCOON:068:1,2013-08-01T17:42:00Z,27.2970,-97.4049,0.0,4.3,118.0,5.3,'11111222,11111222,11111222' 
TCOON,ioos:station:TCOON:068:1,2013-08-01T17:48:00Z,27.2970,-97.4049,0.0,3.9,117.0,5.1,'11111222,11111222,11111222' 
TCOON,ioos:station:TCOON:068:1,2013-08-01T17:54:00Z,27.2970,-97.4049,0.0,3.7,124.0,4.5,'11111222,11111222,11111222' 
TCOON,ioos:station:TCOON:068:1,2013-08-01T18:00:00Z,27.2970,-97.4049,0.0,4.7,127.0,5.7,'11111222,11111222,11111222' 
TCOON,ioos:station:TCOON:068:1,2013-08-01T18:06:00Z,27.2970,-97.4049,0.0,5.0,121.0,6.6,'11111222,11111222,11111222' 
TCOON,ioos:station:TCOON:068:1,2013-08-01T18:12:00Z,27.2970,-97.4049,0.0,5.7,115.0,6.5,'11111222,11111222,11111222' 
TCOON,ioos:station:TCOON:068:1,2013-08-01T18:18:00Z,27.2970,-97.4049,0.0,6.3,115.0,7.3,'11111222,11111222,11111222' 
TCOON,ioos:station:TCOON:068:1,2013-08-01T18:24:00Z,27.2970,-97.4049,0.0,6.1,120.0,7.9,'11111222,11111222,11111222' 
TCOON,ioos:station:TCOON:068:1,2013-08-01T18:30:00Z,27.2970,-97.4049,0.0,5.8,118.0,7.3,'11111222,11111222,11111222' 
TCOON,ioos:station:TCOON:068:1,2013-08-01T18:36:00Z,27.2970,-97.4049,0.0,5.8,115.0,7.2,'11111222,11111222,11111222' 
TCOON,ioos:station:TCOON:068:1,2013-08-01T18:42:00Z,27.2970,-97.4049,0.0,6.1,121.0,7.5,'11111222,11111222,11111222' 
TCOON,ioos:station:TCOON:068:1,2013-08-01T18:48:00Z,27.2970,-97.4049,0.0,5.5,118.0,6.7,'11111222,11111222,11111222' 
TCOON,ioos:station:TCOON:068:1,2013-08-01T18:54:00Z,27.2970,-97.4049,0.0,6.2,115.0,8.0,'11111222,11111222,11111222' 
TCOON,ioos:station:TCOON:068:1,2013-08-01T19:00:00Z,27.2970,-97.4049,0.0,5.7,116.0,7.0,'11111222,11111222,11111222' 
TCOON,ioos:station:TCOON:068:1,2013-08-01T19:06:00Z,27.2970,-97.4049,0.0,6.2,119.0,7.8,'11111222,11111222,11111222' 
TCOON,ioos:station:TCOON:068:1,2013-08-01T19:12:00Z,27.2970,-97.4049,0.0,5.7,119.0,7.2,'11111222,11111222,11111222' 
TCOON,ioos:station:TCOON:068:1,2013-08-01T19:18:00Z,27.2970,-97.4049,0.0,6.2,115.0,7.7,'11111222,11111222,11111222' 
TCOON,ioos:station:TCOON:068:1,2013-08-01T19:24:00Z,27.2970,-97.4049,0.0,5.5,115.0,7.0,'11111222,11111222,11111222' 
TCOON,ioos:station:TCOON:068:1,2013-08-01T19:30:00Z,27.2970,-97.4049,0.0,6.1,114.0,7.7,'11111222,11111222,11111222' 
TCOON,ioos:station:TCOON:068:1,2013-08-01T19:36:00Z,27.2970,-97.4049,0.0,6.6,113.0,8.4,'11111222,11111222,11111222' 
TCOON,ioos:station:TCOON:068:1,2013-08-01T19:42:00Z,27.2970,-97.4049,0.0,6.2,114.0,8.3,'11111222,11111222,11111222' 
TCOON,ioos:station:TCOON:068:1,2013-08-01T19:48:00Z,27.2970,-97.4049,0.0,6.7,117.0,8.2,'11111222,11111222,11111222' 
TCOON,ioos:station:TCOON:068:1,2013-08-01T19:54:00Z,27.2970,-97.4049,0.0,6.8,114.0,9.0,'11111222,11111222,11111222' 
TCOON,ioos:station:TCOON:068:1,2013-08-01T20:00:00Z,27.2970,-97.4049,0.0,7.3,109.0,9.5,'11111222,11111222,11111222' 
TCOON,ioos:station:TCOON:068:1,2013-08-01T20:06:00Z,27.2970,-97.4049,0.0,6.9,115.0,9.1,'11111222,11111222,11111222' 
TCOON,ioos:station:TCOON:068:1,2013-08-01T20:12:00Z,27.2970,-97.4049,0.0,7.1,119.0,8.5,'11111222,11111222,11111222' 
TCOON,ioos:station:TCOON:068:1,2013-08-01T20:18:00Z,27.2970,-97.4049,0.0,7.3,117.0,8.7,'11111222,11111222,11111222' 